Location: Allaines
(49.9632°N, 2.9458°E)
Time: 07:43:07
(UTC+00:00)

Tiangong - Pass Details

Date: 27 June 2021
Orbit: 373 x 386 km, 41.5° (Epoch: 03 August)

Event Time Altitude Azimuth Distance (km) Brightness Sun altitude
Exits shadow 02:08:36 17° 195° (SSW) 1,064 2.7 -10.6°
Maximum altitude 02:09:15 18° 178° (S) 1,028 2.7 -10.6°
Drops below altitude 10° 02:11:26 10° 134° (SE) 1,389 3.8 -10.4°
Sets 02:13:56 0° 114° (ESE) 2,245 5.1 -10.2°
